SCP
0 0 0 0 0 0 0 0 0 0 0 0 0 0 6 6 5 2 1 0 1 1
0 0 0 0 0 0 0 0 0 0 0 0 0 0 1 2 2 2 1 0 1 1
0 0 0 0 0 0 0 0 0 0 0 0 0 0 0 0 1 2 2 2 1 1
0 0 0 0 0 0 0 0 0 0 0 0 0 0 0 0 0 0 1 2 1 1
0 0 0 0 0 0 0 0 0 0 0 0 0 0 0 0 0 0 0 1 1 1
0 0 0 0 0 0 0 0 0 0 0 0 0 0 0 0 0 0 0 0 1 0
0 0 0 0 0 0 0 0 0 0 0 0 0 0 0 0 0 0 0 0 1 1
0 0 0 0 0 0 0 0 0 0 0 0 0 0 0 0 0 0 0 0 0 0
0 0 0 0 0 0 0 0 0 0 0 0 0 0 0 0 0 0 -0 -0 -0 0
0 0 0 0 0 0 0 0 0 0 0 0 0 0 0 -0 0 -0 -0 -0 -0 -0
0 0 0 0 0 0 0 0 0 0 0 0 0 0 0 0 -0 -0 -0 -0 -0 -0
0 0 0 0 0 0 0 0 0 0 0 0 0 0 0 0 0 -0 -0 -0 -0 -0
0 0 0 0 0 0 0 0 0 0 0 0 0 0 0 0 0 -0 -0 -0 -0 -0
0 0 0 0 0 0 0 0 0 0 0 0 0 0 0 0 0 0 0 -0 -0 -0
Wind_Speed_500mb
33 35 37 39 39 41 42 44 40 42 47 61 52 52 42 60 68 95 92 95 96 83
33 32 35 32 31 34 34 34 41 43 46 47 51 50 48 48 51 66 76 88 93 82
33 35 36 33 33 37 35 40 46 45 46 48 48 47 47 54 58 57 62 78 88 83
41 44 44 44 41 41 43 43 48 50 48 44 47 50 52 53 55 60 66 71 81 87
49 44 46 46 46 42 45 45 45 47 50 52 50 54 55 61 60 61 61 63 74 82
54 50 51 53 51 49 52 54 55 56 60 62 63 66 65 63 61 63 63 62 65 80
57 56 57 56 53 55 57 58 57 62 73 78 73 65 65 65 62 63 61 64 61 72
60 61 61 58 56 53 56 60 63 68 71 77 80 76 74 69 65 68 68 74 68 64
47 46 47 50 50 53 58 61 64 70 77 84 88 91 84 79 77 73 76 80 77 67
64 65 67 68 67 69 73 76 75 76 78 86 92 94 96 93 83 78 80 79 83 76
74 77 77 78 76 73 73 80 88 93 97 100 102 101 101 105 99 89 90 82 83 81
78 77 75 77 80 81 82 90 98 102 105 109 107 102 103 105 101 97 89 85 82 81
64 70 75 78 83 89 96 105 106 107 96 93 95 94 96 94 91 92 82 86 81 77
85 89 92 95 96 100 98 94 91 91 87 89 87 81 71 69 79 79 79 85 79 66
Wind_Direction_500mb
274 264 258 258 261 259 260 257 260 243 245 247 258 257 261 255 250 259 248 265 269 271
258 266 268 259 272 269 266 269 264 263 263 258 252 255 253 260 256 252 250 258 263 264
254 260 262 259 267 267 274 282 285 277 273 271 267 261 260 254 255 262 253 254 262 268
249 253 254 254 274 286 286 284 293 283 279 282 281 276 271 271 264 259 262 262 266 271
245 256 257 263 270 284 290 292 298 307 303 291 288 285 283 283 281 274 267 267 267 269
242 244 248 253 266 270 275 282 289 295 302 300 304 290 287 288 284 282 274 271 275 269
244 243 245 253 260 262 265 271 279 288 296 300 300 299 298 291 288 282 277 272 281 275
243 245 247 247 250 257 263 271 278 284 286 290 294 294 300 297 288 288 281 271 272 271
243 245 250 254 254 255 259 265 273 276 283 287 289 290 293 296 288 275 276 278 270 269
268 268 269 270 267 264 271 273 271 273 276 280 283 286 289 291 294 280 277 280 272 270
268 270 270 271 271 269 269 273 276 277 277 277 275 277 279 284 285 286 277 276 271 266
264 259 258 259 263 268 273 276 277 279 278 274 271 270 273 274 276 280 274 272 268 261
261 262 263 266 270 274 277 280 280 277 268 264 264 263 267 270 267 269 269 265 264 257
271 271 273 276 277 280 277 274 270 266 267 268 267 268 265 259 258 261 267 262 263 261
Wind_Speed_850mb
33 35 37 39 39 41 42 44 40 42 47 61 52 52 42 60 68 95 92 95 96 83
33 32 35 32 31 34 34 34 41 43 46 47 51 50 48 48 51 66 76 88 93 82
33 35 36 33 33 37 35 40 46 45 46 48 48 47 47 54 58 57 62 78 88 83
41 44 44 44 41 41 43 43 48 50 48 44 47 50 52 53 55 60 66 71 81 87
49 44 46 46 46 42 45 45 45 47 50 52 50 54 55 61 60 61 61 63 74 82
54 50 51 53 51 49 52 54 55 56 60 62 63 66 65 63 61 63 63 62 65 80
57 56 57 56 53 55 57 58 57 62 73 78 73 65 65 65 62 63 61 64 61 72
60 61 61 58 56 53 56 60 63 68 71 77 80 76 74 69 65 68 68 74 68 64
47 46 47 50 50 53 58 61 64 70 77 84 88 91 84 79 77 73 76 80 77 67
64 65 67 68 67 69 73 76 75 76 78 86 92 94 96 93 83 78 80 79 83 76
74 77 77 78 76 73 73 80 88 93 97 100 102 101 101 105 99 89 90 82 83 81
78 77 75 77 80 81 82 90 98 102 105 109 107 102 103 105 101 97 89 85 82 81
64 70 75 78 83 89 96 105 106 107 96 93 95 94 96 94 91 92 82 86 81 77
85 89 92 95 96 100 98 94 91 91 87 89 87 81 71 69 79 79 79 85 79 66
Wind_Direction_850mb
274 264 258 258 261 259 260 257 260 243 245 247 258 257 261 255 250 259 248 265 269 271
258 266 268 259 272 269 266 269 264 263 263 258 252 255 253 260 256 252 250 258 263 264
254 260 262 259 267 267 274 282 285 277 273 271 267 261 260 254 255 262 253 254 262 268
249 253 254 254 274 286 286 284 293 283 279 282 281 276 271 271 264 259 262 262 266 271
245 256 257 263 270 284 290 292 298 307 303 291 288 285 283 283 281 274 267 267 267 269
242 244 248 253 266 270 275 282 289 295 302 300 304 290 287 288 284 282 274 271 275 269
244 243 245 253 260 262 265 271 279 288 296 300 300 299 298 291 288 282 277 272 281 275
243 245 247 247 250 257 263 271 278 284 286 290 294 294 300 297 288 288 281 271 272 271
243 245 250 254 254 255 259 265 273 276 283 287 289 290 293 296 288 275 276 278 270 269
268 268 269 270 267 264 271 273 271 273 276 280 283 286 289 291 294 280 277 280 272 270
268 270 270 271 271 269 269 273 276 277 277 277 275 277 279 284 285 286 277 276 271 266
264 259 258 259 263 268 273 276 277 279 278 274 271 270 273 274 276 280 274 272 268 261
261 262 263 266 270 274 277 280 280 277 268 264 264 263 267 270 267 269 269 265 264 257
271 271 273 276 277 280 277 274 270 266 267 268 267 268 265 259 258 261 267 262 263 261